Kingston, Jamaica

4:57 PM EST on April 21, 2018 (GMT -0500)
Norman Manley International

Weather History for MKJP - September, 2011

Change the Weather History Date:

Thursday, September 1, 2011

  Actual Average Record
Temperature  
Mean Temperature 85 °F -  
Max Temperature 90 °F 87 °F 92 °F (2017)
Min Temperature 80 °F 78 °F 75 °F (2012)
Cooling Degree Days 20    
Growing Degree Days 35 (Base 50)    
Moisture  
Dew Point 69 °F    
Average Humidity 63    
Maximum Humidity 74    
Minimum Humidity 49    
Precipitation  
Precipitation 0.12 in - - ()
Sea Level Pressure  
Sea Level Pressure 29.91 in    
Wind  
Wind Speed 7 mph ()    
Max Wind Speed 20 mph    
Max Gust Speed -    
Visibility 5.7 miles    
Events Rain , Thunderstorm    
Averages and records for this station are not official NWS values.
T = Trace of Precipitation, MM = Missing Value Source: Averaged Metar Reports

Daily Weather History Graph

Daily Weather History Graph

Search for Another Location

Airport or City:

Astronomy

Sep. 01, 2011 Rise Set
Actual Time 5:52 AM EST 6:21 PM EST
Civil Twilight 5:30 AM EST 6:43 PM EST
Nautical Twilight 5:05 AM EST 7:08 PM EST
Astronomical Twilight 4:39 AM EST 7:34 PM EST
Moon 9:20 AM EST (9/1) 9:04 PM EST (9/1)
Length of Visible Light 13h 12m
Length of Day
12h 28m
Waxing Crescent, 18% of the Moon is Illuminated
Sep 1
Waxing Crescent
Sep 4
First Quarter
Sep 12
Full
Sep 20
Last Quarter
Sep 27
New

Hourly Weather History & Observations

Time (EST) Temp. Heat Index Dew Point Humidity Pressure Visibility Wind Dir Wind Speed Gust Speed Precip Events Conditions
12:00 AM 80.6 °F 83.9 °F 69.8 °F 70% 29.95 in 6.2 mi NW 2.3 mph - N/A   Partly Cloudy
1:00 AM 80 °F - 69 °F 63% 29.95 in 4 mi West 2.3 mph - -   Scattered Clouds
1:00 AM 80.6 °F 83.9 °F 69.8 °F 70% 29.95 in 6.2 mi West 2.3 mph - N/A   Partly Cloudy
2:00 AM 80.6 °F 83.9 °F 69.8 °F 70% 29.92 in 6.2 mi NW 2.3 mph - N/A Thunderstorm Partly Cloudy
3:00 AM 80.6 °F 83.9 °F 69.8 °F 70% 29.89 in 6.2 mi NE 2.3 mph - N/A Thunderstorm Partly Cloudy
4:00 AM 79 °F - 70 °F 68% 29.89 in 4 mi WSW 3.5 mph - -   Scattered Clouds
4:00 AM 78.8 °F - 69.8 °F 74% 29.89 in 6.2 mi WSW 3.5 mph - N/A Thunderstorm Partly Cloudy
5:00 AM 78.8 °F - 69.8 °F 74% 29.89 in 6.2 mi NW 4.6 mph - N/A   Scattered Clouds
6:00 AM 78.8 °F - 68.0 °F 69% 29.89 in 6.2 mi NNW 4.6 mph - N/A   Scattered Clouds
7:00 AM 80 °F - 69 °F 60% 29.93 in 4 mi WNW 3.5 mph - -   Haze
7:00 AM 80.6 °F 83.2 °F 68.0 °F 65% 29.92 in 6.2 mi WNW 3.5 mph - N/A   Scattered Clouds
8:00 AM 82.4 °F 86.3 °F 69.8 °F 66% 29.95 in 6.2 mi East 8.1 mph - N/A   Scattered Clouds
9:00 AM 84.2 °F 88.4 °F 69.8 °F 62% 29.95 in 6.2 mi ESE 12.7 mph - N/A   Scattered Clouds
10:00 AM 85 °F - 70 °F 53% 29.95 in 4 mi ESE 15.0 mph - -   Haze
10:00 AM 86.0 °F 90.4 °F 69.8 °F 58% 29.95 in 6.2 mi ESE 15.0 mph - N/A   Scattered Clouds
11:00 AM 86.0 °F 91.8 °F 71.6 °F 62% 29.92 in 6.2 mi SE 16.1 mph - N/A   Scattered Clouds
12:00 PM 86.0 °F 91.8 °F 71.6 °F 62% 29.92 in 6.2 mi SE 17.3 mph - N/A   Scattered Clouds
1:00 PM 86 °F - 70 °F 49% 29.90 in 4 mi SE 19.6 mph - -   Haze
1:00 PM 86.0 °F 90.4 °F 69.8 °F 58% 29.89 in 6.2 mi SE 19.6 mph - N/A   Scattered Clouds
2:00 PM 86.0 °F 90.4 °F 69.8 °F 58% 29.86 in 6.2 mi SE 19.6 mph - N/A   Scattered Clouds
3:00 PM 84.2 °F 88.4 °F 69.8 °F 62% 29.86 in 6.2 mi SE 19.6 mph - N/A   Scattered Clouds
4:00 PM 84 °F - 71 °F 56% 29.88 in 4 mi SE 19.6 mph - -   Partly Cloudy
4:00 PM 84.2 °F 88.4 °F 69.8 °F 62% 29.86 in 6.2 mi SE 19.6 mph - N/A   Scattered Clouds
5:00 PM 84.2 °F 88.4 °F 69.8 °F 62% 29.86 in 6.2 mi ESE 17.3 mph - N/A   Scattered Clouds
6:00 PM 82.4 °F 86.3 °F 69.8 °F 66% 29.86 in 6.2 mi ESE 15.0 mph - N/A   Mostly Cloudy
7:00 PM 81 °F - 68 °F 57% 29.91 in 4 mi ESE 10.4 mph - - Rain Light Rain Showers
7:00 PM 80.6 °F 83.2 °F 68.0 °F 65% - 6.2 mi ESE 10.4 mph - N/A Thunderstorm Mostly Cloudy
8:00 PM 82.4 °F 84.6 °F 66.2 °F 58% 29.92 in 6.2 mi East 6.9 mph - N/A   Mostly Cloudy
9:00 PM 80.6 °F 83.2 °F 68.0 °F 65% 29.92 in 6.2 mi ESE 8.1 mph - N/A   Mostly Cloudy
10:00 PM 80 °F - 68 °F 59% 29.94 in 4 mi East 3.5 mph - -   Haze
10:00 PM 80.6 °F 83.2 °F 68.0 °F 65% 29.92 in 6.2 mi East 3.5 mph - N/A   Mostly Cloudy
11:00 PM 80.6 °F 83.9 °F 69.8 °F 70% 29.92 in 6.2 mi East 2.3 mph - N/A   Mostly Cloudy